Time,TemperatureF,DewpointF,PressureIn,WindDirection,WindDirectionDegrees,WindSpeedMPH,WindSpeedGustMPH,Humidity,HourlyPrecipIn,Conditions,Clouds,dailyrainin,SolarRadiationWatts/m^2,SoftwareType,DateUTC
2013-06-07 00:09:00,58.7,57.0,30.02,SSW,205,0.0,-999.0,95,-99.99,,,0.13,0,weatherlink.com 1.10,2013-06-07 04:09:00,
2013-06-07 00:24:00,58.9,58.0,30.02,SSW,205,0.0,-999.0,95,-99.99,,,0.13,0,weatherlink.com 1.10,2013-06-07 04:24:00,
2013-06-07 00:39:00,58.6,57.0,30.01,SSW,200,0.0,-999.0,94,-99.99,,,0.13,0,weatherlink.com 1.10,2013-06-07 04:39:00,
2013-06-07 00:54:00,58.7,57.0,30.00,SSW,200,0.0,-999.0,94,-99.99,,,0.13,0,weatherlink.com 1.10,2013-06-07 04:54:00,
2013-06-07 01:09:00,58.5,57.0,30.00,SW,219,0.0,-999.0,94,-99.99,,,0.13,0,weatherlink.com 1.10,2013-06-07 05:09:00,
2013-06-07 01:24:00,58.4,57.0,29.98,SW,216,0.0,-999.0,94,-99.99,,,0.13,0,weatherlink.com 1.10,2013-06-07 05:24:00,
2013-06-07 01:39:00,58.4,57.0,29.98,SE,124,4.0,-999.0,94,-99.99,,,0.13,0,weatherlink.com 1.10,2013-06-07 05:39:00,
2013-06-07 01:54:00,58.4,57.0,29.98,SE,131,0.0,-999.0,94,-99.99,,,0.13,0,weatherlink.com 1.10,2013-06-07 05:54:00,
2013-06-07 02:09:00,58.5,57.0,29.97,SSE,161,0.0,-999.0,94,-99.99,,,0.00,0,weatherlink.com 1.10,2013-06-07 06:09:00,
2013-06-07 02:24:00,58.6,57.0,29.96,SE,143,0.0,-999.0,94,-99.99,,,0.00,0,weatherlink.com 1.10,2013-06-07 06:24:00,
2013-06-07 02:39:00,58.7,57.0,29.96,ESE,122,0.0,-999.0,94,-99.99,,,0.00,0,weatherlink.com 1.10,2013-06-07 06:39:00,
2013-06-07 02:54:00,58.8,57.0,29.96,South,177,4.0,-999.0,95,-99.99,,,0.00,0,weatherlink.com 1.10,2013-06-07 06:54:00,
2013-06-07 03:09:00,58.9,58.0,29.96,SSW,196,0.0,-999.0,95,-99.99,,,0.00,0,weatherlink.com 1.10,2013-06-07 07:09:00,
2013-06-07 03:24:00,58.8,57.0,29.95,ESE,123,0.0,-999.0,94,-99.99,,,0.00,0,weatherlink.com 1.10,2013-06-07 07:24:00,
2013-06-07 03:39:00,58.7,57.0,29.95,SE,132,0.0,-999.0,94,-99.99,,,0.00,0,weatherlink.com 1.10,2013-06-07 07:39:00,
2013-06-07 03:54:00,58.7,57.0,29.95,SSE,150,6.0,-999.0,94,-99.99,,,0.00,0,weatherlink.com 1.10,2013-06-07 07:54:00,
2013-06-07 04:09:00,58.7,57.0,29.94,South,189,0.0,-999.0,94,-99.99,,,0.01,0,weatherlink.com 1.10,2013-06-07 08:09:00,
2013-06-07 04:24:00,58.6,57.0,29.94,SSW,207,0.0,-999.0,94,-99.99,,,0.03,0,weatherlink.com 1.10,2013-06-07 08:24:00,
2013-06-07 04:39:00,58.4,57.0,29.95,SE,137,0.0,-999.0,95,-99.99,,,0.03,0,weatherlink.com 1.10,2013-06-07 08:39:00,
2013-06-07 04:54:00,58.3,57.0,29.95,SE,142,0.0,-999.0,95,-99.99,,,0.05,0,weatherlink.com 1.10,2013-06-07 08:54:00,
2013-06-07 05:09:00,58.0,56.0,29.94,ENE,65,3.0,-999.0,94,-99.99,,,0.06,0,weatherlink.com 1.10,2013-06-07 09:09:00,
2013-06-07 05:24:00,57.6,56.0,29.94,ESE,123,6.0,-999.0,94,-99.99,,,0.06,0,weatherlink.com 1.10,2013-06-07 09:24:00,
2013-06-07 05:39:00,57.5,56.0,29.94,SE,126,4.0,-999.0,94,-99.99,,,0.07,0,weatherlink.com 1.10,2013-06-07 09:39:00,
2013-06-07 05:54:00,57.2,56.0,29.94,East,98,0.0,-999.0,94,-99.99,,,0.07,7,weatherlink.com 1.10,2013-06-07 09:54:00,
2013-06-07 06:09:00,57.1,55.0,29.94,SSE,163,1.0,-999.0,93,-99.99,,,0.08,7,weatherlink.com 1.10,2013-06-07 10:09:00,
2013-06-07 06:24:00,57.0,55.0,29.94,South,191,4.0,-999.0,93,-99.99,,,0.08,11,weatherlink.com 1.10,2013-06-07 10:24:00,
2013-06-07 06:39:00,56.7,55.0,29.94,South,175,9.0,-999.0,93,-99.99,,,0.10,18,weatherlink.com 1.10,2013-06-07 10:39:00,
2013-06-07 06:54:00,56.4,55.0,29.94,South,175,1.0,-999.0,93,-99.99,,,0.13,21,weatherlink.com 1.10,2013-06-07 10:54:00,
2013-06-07 07:09:00,56.1,54.0,29.94,South,179,4.0,-999.0,93,-99.99,,,0.14,26,weatherlink.com 1.10,2013-06-07 11:09:00,
2013-06-07 07:24:00,56.0,54.0,29.94,South,176,6.0,-999.0,93,-99.99,,,0.15,26,weatherlink.com 1.10,2013-06-07 11:24:00,
2013-06-07 07:39:00,56.1,54.0,29.93,SSW,194,3.0,-999.0,93,-99.99,,,0.15,35,weatherlink.com 1.10,2013-06-07 11:39:00,
2013-06-07 07:54:00,56.0,54.0,29.93,SE,145,0.0,-999.0,93,-99.99,,,0.15,42,weatherlink.com 1.10,2013-06-07 11:54:00,
2013-06-07 08:09:00,56.4,55.0,29.93,WSW,247,0.0,-999.0,94,-99.99,,,0.15,44,weatherlink.com 1.10,2013-06-07 12:09:00,
2013-06-07 08:24:00,56.7,55.0,29.93,ESE,107,4.0,-999.0,94,-99.99,,,0.15,44,weatherlink.com 1.10,2013-06-07 12:24:00,
2013-06-07 08:39:00,56.9,55.0,29.93,WNW,284,1.0,-999.0,94,-99.99,,,0.15,33,weatherlink.com 1.10,2013-06-07 12:39:00,
2013-06-07 08:54:00,57.1,56.0,29.92,ENE,72,3.0,-999.0,95,-99.99,,,0.16,46,weatherlink.com 1.10,2013-06-07 12:54:00,
2013-06-07 09:09:00,57.3,56.0,29.92,SE,129,4.0,-999.0,94,-99.99,,,0.16,74,weatherlink.com 1.10,2013-06-07 13:09:00,
2013-06-07 09:24:00,57.7,56.0,29.92,WNW,300,1.0,-999.0,94,-99.99,,,0.16,54,weatherlink.com 1.10,2013-06-07 13:24:00,
2013-06-07 09:39:00,57.9,56.0,29.92,ESE,102,0.0,-999.0,94,-99.99,,,0.16,63,weatherlink.com 1.10,2013-06-07 13:39:00,
2013-06-07 09:54:00,58.2,57.0,29.91,WSW,250,1.0,-999.0,95,-99.99,,,0.17,74,weatherlink.com 1.10,2013-06-07 13:54:00,
2013-06-07 10:09:00,58.2,57.0,29.91,ESE,107,0.0,-999.0,94,-99.99,,,0.18,102,weatherlink.com 1.10,2013-06-07 14:09:00,
2013-06-07 10:24:00,58.6,57.0,29.91,South,169,0.0,-999.0,95,-99.99,,,0.20,144,weatherlink.com 1.10,2013-06-07 14:24:00,
2013-06-07 10:39:00,59.0,58.0,29.90,NNW,345,0.0,-999.0,95,-99.99,,,0.21,137,weatherlink.com 1.10,2013-06-07 14:39:00,
2013-06-07 10:54:00,59.2,58.0,29.90,WSW,257,3.0,-999.0,94,-99.99,,,0.23,116,weatherlink.com 1.10,2013-06-07 14:54:00,
2013-06-07 11:09:00,59.4,58.0,29.90,East,93,0.0,-999.0,95,-99.99,,,0.24,120,weatherlink.com 1.10,2013-06-07 15:09:00,
2013-06-07 11:24:00,59.7,58.0,29.90,East,98,4.0,-999.0,94,-99.99,,,0.25,93,weatherlink.com 1.10,2013-06-07 15:24:00,
2013-06-07 11:54:00,60.0,59.0,29.90,WSW,242,0.0,-999.0,95,-99.99,,,0.30,95,weatherlink.com 1.10,2013-06-07 15:54:00,
2013-06-07 12:09:00,60.2,59.0,29.90,ESE,109,4.0,-999.0,95,-99.99,,,0.33,151,weatherlink.com 1.10,2013-06-07 16:09:00,
2013-06-07 12:24:00,60.6,59.0,29.89,SSE,156,4.0,-999.0,94,-99.99,,,0.34,209,weatherlink.com 1.10,2013-06-07 16:24:00,
2013-06-07 12:39:00,61.0,60.0,29.88,North,355,3.0,-999.0,95,-99.99,,,0.35,151,weatherlink.com 1.10,2013-06-07 16:39:00,
2013-06-07 12:54:00,60.9,59.0,29.88,East,92,5.0,-999.0,94,-99.99,,,0.35,132,weatherlink.com 1.10,2013-06-07 16:54:00,
2013-06-07 13:09:00,60.7,59.0,29.87,SSE,157,0.0,-999.0,94,-99.99,,,0.36,146,weatherlink.com 1.10,2013-06-07 17:09:00,
2013-06-07 13:24:00,60.9,59.0,29.86,ESE,105,0.0,-999.0,94,-99.99,,,0.36,139,weatherlink.com 1.10,2013-06-07 17:24:00,
2013-06-07 13:39:00,61.2,60.0,29.86,SW,232,0.0,-999.0,94,-99.99,,,0.37,121,weatherlink.com 1.10,2013-06-07 17:39:00,
2013-06-07 13:54:00,61.1,59.0,29.86,NW,309,0.0,-999.0,94,-99.99,,,0.38,118,weatherlink.com 1.10,2013-06-07 17:54:00,
2013-06-07 14:09:00,61.0,59.0,29.86,SSE,163,2.0,-999.0,94,-99.99,,,0.39,107,weatherlink.com 1.10,2013-06-07 18:09:00,
2013-06-07 14:24:00,61.2,60.0,29.86,SW,235,0.0,-999.0,95,-99.99,,,0.41,74,weatherlink.com 1.10,2013-06-07 18:24:00,
2013-06-07 14:39:00,61.1,60.0,29.86,NW,321,0.0,-999.0,95,-99.99,,,0.42,47,weatherlink.com 1.10,2013-06-07 18:39:00,
2013-06-07 14:54:00,61.1,60.0,29.85,SSE,163,0.0,-999.0,95,-99.99,,,0.44,62,weatherlink.com 1.10,2013-06-07 18:54:00,
2013-06-07 15:09:00,61.2,60.0,29.85,North,355,0.0,-999.0,95,-99.99,,,0.46,76,weatherlink.com 1.10,2013-06-07 19:09:00,
2013-06-07 15:24:00,61.4,60.0,29.85,North,355,1.0,-999.0,95,-99.99,,,0.49,65,weatherlink.com 1.10,2013-06-07 19:24:00,
2013-06-07 15:39:00,61.3,60.0,29.83,NNW,343,0.0,-999.0,95,-99.99,,,0.50,51,weatherlink.com 1.10,2013-06-07 19:39:00,
2013-06-07 16:09:00,61.3,60.0,29.82,NNW,342,0.0,-999.0,95,-99.99,,,0.53,33,weatherlink.com 1.10,2013-06-07 20:09:00,
2013-06-07 16:24:00,61.2,60.0,29.82,NNW,327,4.0,-999.0,95,-99.99,,,0.55,30,weatherlink.com 1.10,2013-06-07 20:24:00,
2013-06-07 16:54:00,61.2,60.0,29.81,NNW,337,1.0,-999.0,96,-99.99,,,0.59,21,weatherlink.com 1.10,2013-06-07 20:54:00,
2013-06-07 17:09:00,61.1,60.0,29.80,NW,304,0.0,-999.0,96,-99.99,,,0.61,25,weatherlink.com 1.10,2013-06-07 21:09:00,
2013-06-07 17:24:00,61.1,60.0,29.80,WNW,303,0.0,-999.0,96,-99.99,,,0.65,14,weatherlink.com 1.10,2013-06-07 21:24:00,
2013-06-07 17:39:00,60.9,60.0,29.79,WNW,303,0.0,-999.0,96,-99.99,,,0.72,21,weatherlink.com 1.10,2013-06-07 21:39:00,
2013-06-07 17:54:00,60.6,60.0,29.77,NNW,346,1.0,-999.0,96,-99.99,,,0.76,18,weatherlink.com 1.10,2013-06-07 21:54:00,
2013-06-07 18:09:00,60.4,59.0,29.76,WNW,300,1.0,-999.0,96,-99.99,,,0.78,12,weatherlink.com 1.10,2013-06-07 22:09:00,
2013-06-07 18:39:00,60.1,59.0,29.77,WNW,291,0.0,-999.0,96,-99.99,,,0.81,14,weatherlink.com 1.10,2013-06-07 22:39:00,
2013-06-07 18:54:00,60.1,59.0,29.77,ENE,57,0.0,-999.0,96,-99.99,,,0.81,12,weatherlink.com 1.10,2013-06-07 22:54:00,
2013-06-07 19:09:00,60.1,59.0,29.77,ENE,57,0.0,-999.0,96,-99.99,,,0.83,0,weatherlink.com 1.10,2013-06-07 23:09:00,
2013-06-07 19:39:00,59.6,59.0,29.76,WNW,303,0.0,-999.0,96,-99.99,,,0.87,0,weatherlink.com 1.10,2013-06-07 23:39:00,
2013-06-07 19:54:00,59.6,59.0,29.76,WNW,303,0.0,-999.0,96,-99.99,,,0.88,0,weatherlink.com 1.10,2013-06-07 23:54:00,
2013-06-07 20:09:00,59.5,58.0,29.75,NW,325,0.0,-999.0,96,-99.99,,,0.90,0,weatherlink.com 1.10,2013-06-08 00:09:00,
2013-06-07 20:24:00,59.5,58.0,29.74,NW,325,2.0,-999.0,96,-99.99,,,0.91,0,weatherlink.com 1.10,2013-06-08 00:24:00,
2013-06-07 20:39:00,59.5,58.0,29.74,NNW,327,2.0,-999.0,96,-99.99,,,0.92,0,weatherlink.com 1.10,2013-06-08 00:39:00,
2013-06-07 20:54:00,59.3,58.0,29.74,NNW,329,0.0,-999.0,96,-99.99,,,0.94,0,weatherlink.com 1.10,2013-06-08 00:54:00,
2013-06-07 21:09:00,59.1,58.0,29.73,NNW,332,0.0,-999.0,96,-99.99,,,0.96,0,weatherlink.com 1.10,2013-06-08 01:09:00,
2013-06-07 21:24:00,58.8,58.0,29.74,NNW,332,0.0,-999.0,96,-99.99,,,0.97,0,weatherlink.com 1.10,2013-06-08 01:24:00,
2013-06-07 21:39:00,58.4,57.0,29.73,NNE,15,0.0,-999.0,96,-99.99,,,0.99,0,weatherlink.com 1.10,2013-06-08 01:39:00,
2013-06-07 21:54:00,58.1,57.0,29.73,NNE,32,3.0,-999.0,96,-99.99,,,1.06,0,weatherlink.com 1.10,2013-06-08 01:54:00,
2013-06-07 22:24:00,57.5,56.0,29.72,NNE,25,2.0,-999.0,96,-99.99,,,1.18,0,weatherlink.com 1.10,2013-06-08 02:24:00,
2013-06-07 22:39:00,57.3,56.0,29.71,NNE,16,0.0,-999.0,96,-99.99,,,1.18,0,weatherlink.com 1.10,2013-06-08 02:39:00,
2013-06-07 22:54:00,57.1,56.0,29.70,North,5,1.0,-999.0,96,-99.99,,,1.20,0,weatherlink.com 1.10,2013-06-08 02:54:00,
2013-06-07 23:24:00,56.6,56.0,29.68,North,10,0.0,-999.0,96,-99.99,,,1.33,0,weatherlink.com 1.10,2013-06-08 03:24:00,
2013-06-07 23:39:00,56.4,55.0,29.68,North,5,0.0,-999.0,96,-99.99,,,1.48,0,weatherlink.com 1.10,2013-06-08 03:39:00,
2013-06-07 23:54:00,56.3,56.0,29.68,NNE,16,0.0,-999.0,97,-99.99,,,1.55,0,weatherlink.com 1.10,2013-06-08 03:54:00,